Temp
-6 -5 -6 -6 -6 -6 -5 -5 -6 -5 -6 -6 -6 -6 -6 -6 -6 -6 -6 -6 -6 -6 -6 -6 -6 -6 -6 -6 -5 -6 -6 -6 -6 -6 -6 -6 -6 -6 -6 -6 -7 -7 -7 -7 -7 -7 -7 -7 -7
-5 -5 -6 -6 -6 -5 -5 -6 -5 -5 -6 -6 -6 -7 -6 -6 -6 -6 -6 -6 -6 -5 -6 -6 -6 -6 -6 -5 -5 -6 -6 -6 -6 -6 -7 -6 -6 -6 -7 -7 -7 -7 -7 -7 -7 -7 -7 -7 -7
-6 -6 -6 -7 -6 -6 -6 -6 -5 -5 -6 -7 -7 -6 -6 -7 -7 -6 -6 -6 -6 -5 -6 -6 -6 -6 -6 -6 -6 -6 -6 -6 -6 -6 -6 -6 -6 -7 -7 -7 -7 -7 -7 -7 -7 -7 -6 -6 -7
-6 -6 -6 -6 -6 -6 -4 -6 -6 -6 -6 -6 -7 -6 -6 -7 -7 -7 -6 -6 -6 -6 -7 -6 -6 -5 -5 -6 -6 -6 -6 -6 -6 -6 -6 -6 -6 -7 -6 -8 -8 -7 -7 -7 -7 -7 -6 -7 -7
-6 -6 -6 -6 -6 -5 -5 -5 -7 -7 -7 -6 -6 -7 -7 -7 -7 -7 -7 -6 -6 -7 -7 -6 -6 -6 -6 -6 -6 -6 -6 -6 -6 -6 -6 -6 -6 -7 -6 -7 -8 -7 -8 -7 -7 -6 -7 -7 -7
-6 -7 -6 -6 -6 -5 -5 -6 -7 -7 -7 -7 -7 -7 -7 -7 -7 -7 -7 -6 -6 -7 -7 -7 -6 -6 -6 -6 -6 -6 -6 -5 -5 -6 -5 -6 -5 -6 -6 -8 -8 -8 -8 -7 -7 -7 -7 -8 -7
-6 -7 -7 -7 -6 -6 -5 -5 -6 -7 -6 -7 -7 -7 -7 -7 -7 -7 -7 -7 -7 -6 -6 -6 -6 -6 -6 -6 -6 -6 -6 -5 -5 -5 -5 -5 -6 -7 -7 -8 -7 -8 -7 -6 -7 -7 -7 -8 -7
-7 -6 -7 -7 -5 -6 -6 -6 -7 -8 -7 -7 -7 -7 -7 -7 -7 -7 -7 -6 -6 -6 -6 -6 -6 -6 -6 -6 -6 -6 -6 -5 -5 -4 -4 -5 -6 -7 -7 -8 -8 -7 -6 -6 -6 -7 -7 -7 -7
-7 -6 -7 -6 -7 -6 -5 -5 -5 -6 -7 -7 -7 -7 -7 -7 -7 -7 -7 -7 -6 -6 -6 -5 -5 -6 -6 -6 -6 -6 -5 -6 -5 -4 -5 -5 -7 -6 -7 -7 -7 -6 -6 -6 -6 -7 -7 -7 -8
-7 -7 -6 -6 -6 -6 -7 -6 -5 -6 -7 -7 -7 -6 -7 -7 -7 -7 -7 -7 -6 -6 -6 -5 -5 -5 -6 -7 -6 -6 -6 -6 -6 -5 -5 -5 -6 -6 -8 -7 -6 -6 -6 -6 -7 -7 -7 -7 -7
-7 -7 -7 -5 -6 -7 -6 -5 -5 -5 -6 -6 -7 -6 -6 -7 -7 -7 -7 -7 -6 -6 -6 -5 -5 -5 -6 -6 -6 -6 -7 -6 -6 -6 -7 -7 -7 -7 -7 -7 -6 -7 -7 -6 -6 -6 -7 -8 -8
-7 -7 -6 -6 -7 -7 -6 -6 -4 -5 -6 -7 -7 -7 -7 -7 -7 -7 -7 -7 -7 -6 -6 -5 -5 -6 -7 -7 -6 -6 -6 -7 -6 -7 -6 -7 -7 -7 -7 -7 -6 -6 -6 -6 -7 -7 -8 -8 -7
-7 -6 -6 -7 -6 -6 -7 -6 -5 -6 -6 -7 -7 -7 -7 -7 -7 -7 -8 -7 -7 -6 -7 -6 -6 -6 -7 -6 -6 -6 -6 -6 -7 -7 -8 -8 -7 -7 -7 -7 -6 -6 -7 -6 -6 -7 -8 -8 -8
-7 -7 -7 -7 -6 -6 -6 -6 -6 -5 -5 -6 -7 -7 -7 -7 -7 -7 -7 -7 -7 -6 -7 -7 -7 -6 -6 -6 -6 -6 -7 -6 -7 -8 -8 -8 -7 -7 -7 -8 -7 -6 -7 -6 -8 -8 -9 -9 -8
-7 -7 -7 -7 -6 -6 -7 -6 -6 -6 -5 -6 -6 -7 -7 -7 -7 -7 -8 -7 -7 -7 -7 -7 -7 -7 -8 -8 -8 -7 -7 -7 -7 -8 -8 -7 -7 -7 -8 -7 -7 -7 -7 -7 -8 -9 -9 -8 -8
-7 -6 -7 -7 -7 -7 -7 -7 -6 -6 -6 -6 -6 -6 -6 -7 -7 -7 -7 -7 -7 -7 -8 -8 -8 -7 -7 -8 -8 -8 -8 -8 -8 -7 -8 -7 -7 -7 -7 -7 -7 -7 -7 -7 -8 -8 -9 -8 -8
-8 -7 -7 -7 -8 -8 -7 -7 -7 -7 -7 -7 -6 -7 -7 -7 -8 -7 -7 -7 -7 -7 -8 -8 -8 -8 -8 -8 -8 -8 -8 -8 -8 -7 -8 -7 -7 -7 -7 -7 -7 -7 -7 -8 -8 -8 -8 -8 -8
-8 -8 -8 -7 -7 -8 -8 -7 -7 -7 -7 -7 -8 -7 -7 -7 -7 -8 -8 -7 -7 -7 -8 -8 -8 -8 -8 -8 -8 -8 -8 -8 -8 -8 -8 -7 -7 -7 -7 -7 -7 -7 -7 -7 -7 -8 -8 -8 -8
-9 -8 -7 -7 -7 -7 -8 -7 -7 -7 -7 -7 -7 -7 -7 -8 -7 -7 -6 -7 -7 -6 -7 -7 -8 -7 -8 -9 -8 -8 -8 -8 -9 -8 -7 -8 -7 -6 -6 -7 -7 -7 -7 -7 -7 -7 -8 -8 -8
-8 -9 -8 -7 -8 -8 -7 -7 -8 -7 -6 -6 -6 -6 -6 -7 -7 -7 -6 -7 -7 -7 -7 -7 -8 -9 -8 -9 -9 -8 -9 -8 -8 -8 -8 -8 -7 -6 -7 -7 -7 -7 -6 -6 -7 -7 -7 -7 -7
-9 -9 -8 -9 -8 -8 -7 -8 -7 -7 -6 -7 -6 -6 -6 -6 -7 -7 -7 -7 -6 -6 -7 -8 -8 -8 -8 -8 -8 -8 -9 -8 -8 -8 -8 -7 -7 -7 -7 -7 -6 -6 -7 -7 -7 -6 -7 -6 -7
-9 -10 -9 -8 -7 -8 -9 -8 -8 -7 -7 -6 -6 -6 -7 -6 -5 -7 -7 -7 -6 -6 -6 -7 -8 -7 -8 -8 -8 -8 -8 -8 -8 -8 -7 -7 -7 -7 -7 -6 -6 -6 -7 -7 -7 -7 -6 -6 -7
-10 -9 -10 -8 -7 -8 -9 -8 -7 -8 -6 -6 -6 -6 -6 -6 -5 -7 -8 -7 -7 -7 -7 -7 -7 -7 -8 -8 -8 -8 -7 -8 -8 -8 -8 -7 -7 -7 -6 -6 -6 -6 -6 -6 -7 -6 -6 -7 -6
-10 -10 -10 -8 -8 -8 -8 -8 -8 -7 -7 -7 -6 -7 -6 -6 -6 -7 -7 -7 -8 -8 -8 -7 -7 -7 -8 -8 -8 -8 -8 -8 -8 -8 -8 -8 -7 -7 -7 -7 -7 -7 -7 -6 -7 -7 -6 -6 -6
-10 -10 -10 -9 -8 -9 -8 -7 -8 -7 -6 -7 -6 -6 -6 -7 -7 -7 -7 -8 -8 -8 -8 -8 -7 -7 -7 -8 -8 -8 -8 -8 -8 -7 -7 -7 -7 -7 -7 -7 -7 -7 -7 -6 -6 -6 -6 -6 -6
-9 -10 -10 -10 -9 -8 -9 -7 -7 -7 -7 -7 -7 -6 -6 -7 -7 -7 -8 -8 -8 -8 -8 -8 -7 -7 -7 -7 -8 -8 -8 -8 -8 -8 -8 -7 -7 -7 -7 -7 -7 -6 -6 -6 -6 -6 -6 -6 -6
-10 -9 -9 -9 -9 -10 -9 -8 -7 -7 -7 -7 -8 -7 -7 -7 -6 -7 -7 -8 -7 -8 -7 -7 -8 -7 -8 -7 -8 -9 -7 -8 -8 -7 -8 -7 -7 -7 -7 -7 -7 -6 -6 -6 -6 -6 -6 -6 -6
-10 -9 -9 -9 -10 -9 -9 -9 -8 -7 -6 -7 -8 -7 -7 -7 -6 -7 -8 -8 -8 -8 -8 -8 -8 -8 -7 -7 -8 -9 -8 -7 -7 -7 -7 -7 -7 -7 -7 -7 -7 -7 -6 -6 -6 -6 -5 -6 -6
-10 -10 -10 -9 -9 -10 -10 -9 -9 -8 -7 -7 -8 -7 -7 -7 -7 -7 -7 -7 -7 -7 -7 -8 -8 -8 -7 -8 -7 -7 -8 -7 -7 -7 -7 -7 -7 -7 -7 -7 -7 -7 -7 -6 -6 -6 -6 -5 -6
-10 -10 -10 -10 -10 -10 -10 -9 -9 -8 -7 -7 -8 -8 -7 -7 -7 -8 -8 -7 -6 -7 -8 -7 -8 -8 -8 -8 -8 -7 -7 -8 -7 -7 -7 -7 -7 -7 -7 -7 -7 -7 -7 -6 -7 -6 -6 -5 -6
Height
5890 5890 5889 5888 5892 5889 5887 5888 5887 5887 5888 5887 5887 5886 5887 5887 5888 5891 5889 5890 5891 5892 5895 5896 5898 5900 5901 5902 5903 5905 5906 5907 5907 5907 5908 5908 5910 5909 5910 5909 5909 5907 5905 5907 5908 5906 5905 5906 5906
5890 5889 5889 5889 5890 5889 5888 5886 5884 5889 5888 5887 5886 5886 5886 5887 5887 5889 5889 5889 5890 5889 5889 5894 5897 5899 5901 5903 5904 5905 5905 5907 5907 5908 5908 5908 5909 5909 5909 5910 5909 5907 5907 5908 5909 5909 5908 5907 5905
5890 5888 5889 5887 5889 5888 5886 5885 5883 5888 5887 5886 5885 5884 5885 5886 5886 5887 5887 5887 5887 5887 5888 5890 5894 5898 5900 5902 5904 5906 5905 5906 5906 5906 5906 5906 5908 5908 5907 5908 5910 5909 5909 5910 5910 5911 5911 5910 5908
5887 5888 5888 5887 5885 5885 5883 5885 5885 5885 5886 5886 5884 5882 5883 5884 5885 5886 5887 5887 5888 5887 5886 5888 5894 5897 5899 5901 5904 5905 5905 5905 5904 5904 5905 5905 5905 5906 5906 5908 5908 5910 5911 5909 5909 5910 5910 5909 5908
5888 5887 5882 5886 5884 5883 5883 5883 5885 5886 5883 5883 5883 5883 5882 5882 5884 5885 5885 5886 5887 5886 5886 5887 5892 5895 5899 5900 5902 5903 5903 5902 5903 5903 5904 5904 5904 5904 5906 5905 5909 5911 5910 5910 5911 5910 5911 5911 5910
5887 5887 5884 5882 5884 5883 5884 5884 5885 5886 5884 5883 5882 5881 5881 5882 5882 5883 5884 5885 5886 5887 5887 5887 5892 5895 5897 5898 5900 5900 5901 5902 5903 5902 5902 5903 5904 5903 5905 5907 5910 5910 5911 5911 5910 5910 5910 5910 5909
5886 5883 5883 5883 5884 5884 5883 5883 5885 5883 5882 5881 5881 5880 5881 5880 5881 5882 5883 5884 5885 5886 5887 5889 5892 5894 5895 5897 5898 5899 5900 5901 5902 5902 5901 5902 5902 5901 5903 5909 5910 5911 5912 5911 5911 5912 5912 5912 5908
5882 5873 5889 5887 5879 5883 5880 5882 5887 5884 5882 5880 5880 5881 5881 5880 5880 5881 5882 5883 5884 5886 5887 5888 5890 5892 5894 5896 5897 5899 5899 5900 5901 5901 5899 5897 5897 5901 5905 5909 5910 5912 5914 5914 5914 5913 5913 5911 5911
5883 5881 5886 5886 5884 5883 5882 5881 5885 5884 5880 5879 5881 5881 5881 5880 5881 5881 5882 5883 5883 5885 5886 5887 5888 5890 5892 5894 5896 5898 5899 5899 5901 5899 5896 5896 5900 5905 5907 5909 5911 5913 5915 5916 5917 5918 5919 5915 5914
5883 5875 5881 5882 5881 5881 5879 5879 5881 5883 5882 5883 5881 5881 5881 5880 5880 5881 5881 5882 5883 5884 5885 5886 5887 5888 5889 5892 5895 5897 5897 5899 5900 5899 5897 5902 5904 5904 5907 5911 5913 5915 5916 5917 5918 5917 5919 5916 5914
5881 5878 5880 5877 5879 5878 5880 5879 5877 5881 5882 5882 5881 5880 5880 5881 5881 5881 5881 5882 5883 5883 5884 5884 5884 5885 5886 5890 5892 5894 5896 5898 5899 5900 5902 5904 5904 5907 5910 5914 5918 5918 5917 5917 5918 5919 5920 5917 5914
5882 5878 5877 5877 5880 5879 5880 5880 5879 5878 5882 5883 5882 5881 5879 5879 5880 5880 5881 5881 5882 5883 5882 5881 5880 5881 5884 5888 5890 5890 5893 5893 5897 5901 5903 5905 5908 5912 5915 5919 5920 5919 5917 5920 5919 5920 5918 5914 5915
5883 5877 5875 5877 5877 5878 5878 5878 5881 5882 5882 5884 5882 5882 5881 5882 5881 5881 5881 5881 5882 5882 5880 5879 5880 5881 5883 5886 5888 5889 5892 5894 5896 5901 5906 5910 5912 5914 5917 5921 5921 5922 5923 5922 5922 5921 5919 5918 5919
5886 5879 5877 5877 5874 5878 5879 5879 5881 5883 5885 5884 5882 5883 5883 5883 5883 5883 5883 5882 5883 5883 5882 5883 5883 5882 5883 5886 5886 5891 5894 5894 5901 5905 5907 5911 5913 5915 5919 5922 5923 5925 5926 5927 5924 5922 5921 5920 5920
5888 5883 5881 5878 5880 5877 5878 5881 5883 5882 5884 5884 5884 5884 5883 5881 5881 5884 5883 5884 5883 5884 5884 5883 5883 5883 5885 5886 5890 5893 5896 5899 5903 5906 5910 5913 5916 5918 5920 5923 5922 5926 5928 5930 5926 5923 5923 5923 5921
5886 5883 5880 5876 5876 5878 5879 5879 5880 5883 5882 5881 5883 5884 5885 5884 5885 5885 5884 5884 5886 5885 5886 5885 5887 5888 5888 5889 5893 5896 5897 5901 5905 5909 5911 5915 5916 5917 5921 5922 5924 5926 5930 5930 5927 5926 5924 5926 5922
5885 5885 5883 5882 5878 5877 5878 5880 5881 5881 5881 5882 5880 5881 5882 5883 5884 5886 5886 5887 5887 5886 5887 5888 5889 5888 5890 5891 5894 5896 5900 5904 5907 5910 5914 5916 5919 5920 5921 5922 5926 5927 5930 5930 5929 5929 5924 5925 5923
5888 5887 5885 5884 5883 5877 5876 5878 5878 5880 5880 5881 5881 5883 5885 5886 5886 5887 5887 5887 5887 5888 5888 5890 5890 5890 5892 5893 5895 5898 5903 5907 5908 5912 5917 5917 5919 5921 5925 5926 5926 5927 5930 5932 5932 5928 5928 5925 5924
5888 5886 5885 5885 5883 5881 5879 5877 5878 5879 5880 5881 5881 5884 5886 5887 5887 5888 5888 5886 5889 5890 5889 5889 5890 5892 5892 5893 5896 5899 5904 5908 5910 5914 5918 5917 5919 5922 5926 5926 5926 5927 5930 5934 5932 5929 5930 5927 5926
5886 5885 5886 5885 5884 5879 5880 5878 5879 5880 5881 5881 5883 5885 5887 5887 5888 5889 5890 5888 5888 5890 5891 5890 5889 5892 5892 5895 5898 5901 5904 5907 5911 5913 5917 5919 5920 5921 5925 5926 5928 5929 5929 5932 5929 5929 5929 5930 5927
5883 5884 5885 5885 5883 5882 5882 5881 5879 5881 5882 5884 5884 5884 5884 5886 5887 5885 5887 5889 5890 5892 5890 5891 5891 5892 5892 5895 5898 5901 5903 5906 5910 5911 5914 5918 5921 5921 5924 5927 5928 5928 5929 5928 5929 5930 5926 5929 5927
5882 5882 5881 5883 5883 5881 5882 5884 5881 5883 5884 5883 5883 5883 5883 5883 5883 5885 5886 5886 5889 5892 5892 5890 5889 5892 5891 5893 5897 5900 5903 5904 5907 5909 5913 5916 5918 5921 5923 5927 5928 5927 5926 5928 5928 5928 5927 5929 5930
5880 5879 5879 5878 5879 5880 5881 5882 5882 5881 5882 5881 5881 5880 5879 5880 5883 5887 5886 5886 5890 5891 5891 5892 5890 5890 5891 5891 5893 5898 5900 5902 5905 5909 5912 5913 5918 5922 5924 5925 5926 5929 5927 5928 5929 5927 5927 5928 5930
5877 5878 5877 5875 5876 5879 5879 5880 5882 5881 5879 5879 5879 5877 5879 5879 5881 5885 5885 5886 5886 5889 5891 5893 5894 5889 5889 5891 5892 5895 5899 5901 5903 5908 5911 5915 5918 5921 5925 5926 5927 5928 5926 5926 5929 5930 5929 5927 5928
5875 5876 5877 5874 5874 5877 5877 5879 5877 5881 5880 5878 5876 5875 5876 5875 5879 5882 5883 5883 5883 5884 5889 5891 5894 5890 5889 5889 5891 5893 5896 5899 5902 5906 5910 5914 5917 5919 5923 5925 5925 5926 5925 5926 5928 5928 5927 5928 5930
5874 5874 5875 5874 5875 5874 5872 5875 5875 5878 5878 5878 5875 5874 5874 5875 5874 5879 5880 5879 5879 5883 5883 5885 5888 5889 5891 5887 5888 5890 5893 5896 5898 5904 5908 5910 5913 5917 5919 5922 5922 5925 5925 5924 5926 5927 5929 5930 5930
5872 5871 5873 5872 5871 5871 5870 5871 5871 5876 5875 5876 5875 5874 5873 5872 5874 5874 5876 5878 5876 5879 5880 5883 5885 5886 5889 5888 5884 5888 5890 5894 5897 5899 5904 5907 5910 5914 5915 5917 5919 5921 5922 5922 5922 5923 5926 5928 5929
5867 5870 5870 5870 5869 5868 5868 5868 5868 5871 5873 5870 5871 5872 5870 5869 5871 5874 5874 5874 5874 5877 5878 5880 5882 5884 5887 5888 5882 5880 5886 5890 5895 5898 5900 5902 5905 5908 5910 5914 5916 5918 5918 5918 5920 5920 5923 5925 5927
5863 5865 5866 5868 5867 5864 5864 5867 5868 5867 5867 5868 5866 5866 5867 5868 5865 5867 5868 5871 5873 5875 5875 5876 5878 5881 5884 5885 5883 5883 5881 5882 5887 5893 5896 5899 5899 5901 5906 5909 5910 5913 5915 5915 5916 5919 5920 5922 5923
5858 5860 5861 5862 5865 5863 5861 5863 5863 5864 5863 5863 5863 5863 5863 5863 5864 5862 5862 5865 5867 5866 5867 5870 5875 5877 5877 5880 5879 5882 5883 5885 5886 5888 5891 5895 5897 5898 5902 5904 5906 5907 5910 5911 5912 5915 5917 5918 5919
Wind_Speed
6 6 6 2 3 5 4 2 2 1 4 3 4 4 3 4 3 3 5 8 11 15 14 24 21 17 14 11 7 7 6 4 2 3 4 5 4 4 5 3 4 5 7 8 8 8 11 10 7
6 7 7 4 3 1 2 2 3 1 7 4 1 1 1 3 3 2 3 7 8 6 7 25 22 18 14 9 9 6 8 5 4 3 4 4 3 8 7 6 6 5 7 9 9 9 10 8 7
3 7 10 8 10 5 2 3 6 8 8 3 2 1 1 2 3 3 2 4 5 5 19 13 24 18 15 12 11 7 5 4 6 5 6 7 10 11 15 8 7 8 8 9 8 9 7 6 6
2 4 6 11 9 5 1 4 4 7 1 3 0 2 3 5 5 3 3 3 2 6 15 21 24 18 17 15 13 10 7 9 9 9 7 8 9 10 15 10 9 8 9 9 9 7 6 7 6
6 8 7 9 5 2 3 8 11 7 5 4 4 2 3 6 6 4 3 3 3 2 1 27 23 18 15 14 13 13 13 11 11 12 9 7 9 9 17 14 12 11 11 10 7 7 6 7 5
6 7 7 12 8 3 2 7 5 0 3 2 4 3 2 4 5 4 4 4 4 4 4 8 10 10 11 10 11 15 14 10 7 8 10 9 6 6 15 15 14 13 11 10 9 7 8 8 5
8 8 15 13 6 3 7 11 7 2 5 4 4 4 1 1 3 3 4 5 5 6 4 5 8 11 13 12 12 13 11 9 5 7 8 11 12 14 16 16 15 13 11 10 9 7 7 4 3
8 14 5 8 13 6 7 6 5 4 4 2 3 3 2 1 2 3 3 4 6 6 5 5 9 12 14 14 10 10 11 8 7 8 11 10 16 20 22 17 16 13 11 9 7 5 5 1 3
15 3 7 3 12 8 9 7 11 10 6 5 4 3 2 1 2 2 3 4 3 4 5 6 11 12 13 14 14 10 10 10 10 7 7 16 24 21 14 18 17 13 10 7 4 2 3 2 6
9 11 7 5 8 10 5 5 7 11 9 2 1 2 4 3 2 2 1 1 3 5 6 8 10 13 14 16 17 12 9 10 6 11 19 18 17 12 19 16 15 11 9 7 6 2 5 2 11
6 6 3 5 7 9 9 8 7 7 9 6 4 6 6 5 3 2 2 2 3 3 9 10 12 13 16 18 15 16 10 13 11 19 8 9 15 18 17 14 11 11 11 8 2 2 3 6 6
13 8 6 4 4 8 8 5 6 11 6 6 2 4 7 6 4 5 2 1 1 1 2 6 7 16 17 14 13 12 16 17 18 20 6 16 18 16 15 14 12 12 11 6 3 1 2 2 9
7 10 2 1 7 8 5 5 5 6 4 6 6 6 7 2 3 5 4 1 1 4 9 6 7 14 18 18 16 14 18 17 25 17 14 17 17 16 16 15 13 10 8 6 4 2 6 7 11
19 11 3 7 21 8 9 12 7 3 3 7 5 12 5 4 6 7 8 3 2 4 7 9 11 16 14 13 10 11 16 20 22 18 23 21 19 18 18 14 12 7 4 2 5 2 5 7 10
8 15 16 8 12 17 11 6 1 2 2 6 5 6 5 8 7 10 7 5 1 4 6 7 12 14 13 13 13 16 12 13 17 22 20 16 19 20 16 14 12 5 5 3 4 2 6 5 10
5 11 16 12 8 10 7 17 5 6 2 1 4 6 8 8 7 8 7 3 2 5 7 7 7 9 9 12 14 16 16 16 16 15 17 19 19 17 17 13 9 7 5 5 2 4 5 13 9
12 6 9 12 9 8 6 7 4 4 0 3 5 5 4 10 10 5 6 4 1 3 6 8 10 9 9 14 14 13 12 14 14 14 17 14 17 19 10 14 13 8 6 1 2 3 13 16 15
7 13 13 14 13 9 7 1 8 7 3 1 5 4 2 3 8 7 3 2 2 2 5 9 12 14 14 12 13 13 14 15 16 15 21 20 14 11 13 14 13 9 6 2 2 8 13 13 8
6 4 11 13 13 13 13 12 5 7 6 8 6 9 5 5 6 9 7 8 5 1 1 10 14 15 15 15 15 13 15 16 16 17 16 14 17 8 9 9 8 8 7 5 4 8 10 9 5
4 8 5 12 13 17 14 15 7 5 5 6 7 4 7 3 3 6 6 3 6 5 3 6 12 14 14 13 15 13 16 16 19 19 17 16 15 12 8 10 9 8 6 5 5 5 8 8 4
2 8 5 11 8 11 11 9 11 9 3 2 4 5 5 6 7 2 7 2 4 5 10 9 10 12 12 11 12 14 18 15 15 14 13 14 15 15 12 11 10 9 7 5 7 5 5 7 6
1 9 12 7 3 7 9 8 12 14 12 1 5 6 12 12 13 6 3 6 5 3 2 9 11 9 10 10 12 14 16 16 13 10 12 14 15 16 13 11 9 8 9 9 6 5 5 5 3
6 2 12 3 2 4 2 7 7 6 8 4 5 5 4 6 5 7 8 8 8 2 1 3 9 12 11 13 10 10 14 16 15 14 13 14 16 16 10 8 5 6 5 2 1 3 3 3 1
5 5 9 6 11 9 3 11 3 6 8 9 5 1 2 2 5 5 9 9 13 13 8 6 9 12 15 16 17 16 17 17 16 15 16 16 15 12 9 8 7 5 2 3 2 3 4 2 2
17 14 16 16 18 11 7 5 7 3 3 5 5 4 6 6 3 6 5 11 13 14 10 10 10 10 15 19 19 19 19 19 18 18 18 16 15 12 11 10 7 7 6 5 4 2 2 1 4
8 20 18 13 9 7 15 4 8 1 3 5 6 5 4 9 8 4 7 11 15 20 21 17 14 12 13 19 20 19 18 20 19 18 17 17 15 16 14 11 9 9 7 8 8 9 6 4 5
2 21 14 14 9 12 17 14 8 6 3 8 4 6 5 7 6 6 9 13 13 11 8 18 18 15 15 16 18 19 19 19 20 17 18 19 17 17 14 13 11 9 7 8 9 9 9 8 6
6 12 22 16 13 13 11 14 14 12 14 11 6 7 5 3 0 8 10 11 14 14 3 21 18 18 18 19 20 23 22 21 21 19 19 19 19 20 18 15 11 11 8 8 9 11 10 9 9
8 8 20 20 18 15 15 11 10 16 14 10 11 11 8 3 4 5 4 9 13 11 7 13 20 18 23 22 19 19 24 25 23 21 21 21 23 21 21 18 11 15 12 10 10 12 12 12 11
19 15 16 19 23 18 15 18 17 16 18 8 17 13 9 6 4 7 8 7 8 8 8 12 18 25 29 24 22 21 20 21 22 23 22 22 24 23 21 18 14 15 14 14 13 14 13 13 12
Wind_Direction
173 156 167 170 214 221 297 200 113 213 32 5 17 13 96 157 196 190 193 224 249 262 240 207 202 211 215 220 225 238 247 250 229 237 248 241 241 226 248 232 213 160 150 125 107 108 93 84 76
158 177 196 208 223 206 203 343 284 352 65 36 31 197 161 203 236 247 241 247 263 303 231 211 200 210 209 214 215 234 241 189 191 231 276 309 228 238 220 225 212 174 143 120 129 114 104 108 111
188 206 208 191 196 220 234 14 311 28 35 11 261 155 219 230 250 240 261 290 320 311 200 225 197 207 208 219 217 224 204 211 230 226 288 290 266 291 212 200 210 162 133 131 132 113 116 124 117
191 222 216 194 201 187 202 39 3 6 97 164 332 325 270 243 242 242 227 247 271 8 205 184 193 196 217 224 222 223 222 228 246 261 286 277 270 274 215 177 184 148 149 150 131 132 142 135 126
223 252 236 129 242 207 21 59 35 360 333 1 351 330 265 250 236 219 200 226 206 279 65 194 195 196 212 218 225 227 222 237 252 264 259 262 277 203 228 187 166 167 168 151 143 162 140 125 98
244 265 252 253 175 119 97 94 76 266 290 331 341 335 293 251 245 221 185 217 218 233 199 125 174 196 213 218 226 217 223 231 248 259 259 254 263 192 215 169 165 177 171 156 177 165 156 137 98
256 57 66 117 106 79 34 45 64 14 49 26 353 326 5 206 216 202 190 203 223 229 184 184 206 207 215 217 213 207 211 229 254 275 270 244 241 181 191 165 181 177 169 178 174 179 142 121 91
279 324 332 302 245 237 69 357 94 82 37 9 5 327 71 163 142 178 172 195 224 215 216 201 219 211 209 216 215 207 215 234 266 279 269 214 191 175 165 181 180 170 173 187 183 176 140 134 32
301 180 320 343 174 295 331 23 60 88 106 24 32 9 33 120 129 112 120 158 199 212 191 198 221 219 215 210 218 218 231 230 248 258 163 164 160 154 189 176 173 174 179 179 145 105 344 313 41
302 29 332 298 294 237 301 324 39 96 91 106 82 40 95 96 96 85 34 177 203 221 223 216 225 213 216 204 214 197 208 212 217 166 140 158 170 176 158 172 172 156 165 156 154 135 268 328 41
306 340 302 246 251 246 228 297 31 80 78 79 33 26 67 95 77 20 303 251 201 213 220 235 227 221 216 209 210 209 214 202 190 175 185 184 177 153 159 168 155 157 167 161 114 26 326 16 48
330 336 332 250 196 248 246 277 343 75 55 93 80 58 57 56 63 86 60 52 342 88 170 177 206 216 206 189 192 191 200 188 190 187 221 159 146 149 154 159 161 176 163 131 129 259 240 317 34
328 311 358 188 247 218 269 291 297 103 133 117 117 77 75 47 82 79 98 112 32 77 72 87 163 158 175 192 187 197 192 186 180 183 167 160 150 156 164 156 174 174 164 136 141 30 12 358 32
354 8 38 223 189 209 219 269 254 209 140 112 103 79 76 90 112 134 118 117 109 74 79 80 104 108 150 169 171 182 182 174 171 172 171 157 163 157 159 165 174 178 162 142 87 17 18 41 39
21 28 29 270 234 181 205 236 171 174 261 101 120 122 63 47 89 133 117 115 90 97 92 84 90 102 110 107 119 152 169 175 167 163 164 168 157 153 158 165 171 161 156 120 100 253 30 92 62
346 10 28 31 186 198 214 187 311 200 13 66 125 120 116 99 67 114 116 124 201 136 120 106 122 141 133 133 131 144 153 153 159 163 166 175 165 162 165 158 152 157 148 124 128 10 39 60 79
85 41 18 28 63 66 121 189 171 180 204 212 117 69 70 94 104 90 84 82 89 150 142 147 144 138 152 149 155 160 169 162 176 164 168 181 165 168 175 180 162 159 114 181 171 63 63 64 88
16 5 4 5 11 21 35 35 245 220 165 234 167 247 151 169 127 145 124 89 54 173 181 170 162 162 181 182 165 175 184 178 184 186 177 185 167 159 174 161 150 159 130 162 102 59 66 69 79
27 357 348 31 15 21 20 18 287 214 197 210 195 180 187 199 175 156 175 157 154 214 231 165 174 175 175 181 172 186 191 182 191 197 192 189 180 183 163 162 155 155 147 169 79 71 82 75 60
66 14 14 34 27 40 29 28 4 256 216 264 225 234 200 160 181 187 164 157 139 134 134 156 176 182 168 185 175 187 197 185 186 195 188 188 191 199 179 182 173 165 147 111 90 95 107 100 11
10 343 19 17 53 57 46 52 29 282 274 202 258 208 205 242 227 232 172 174 168 168 132 145 164 175 167 180 180 173 187 192 193 188 198 203 194 191 190 198 182 163 151 103 83 78 66 68 31
183 331 339 330 122 54 41 69 56 26 19 89 44 341 293 250 237 196 160 199 264 279 127 140 152 180 169 172 176 188 185 192 192 199 220 213 202 199 197 201 190 163 144 113 102 91 64 39 70
176 21 330 359 12 187 330 314 354 35 353 144 61 22 37 247 230 164 193 196 197 214 177 236 156 169 173 164 174 184 192 189 185 204 203 208 205 203 206 213 205 203 172 162 110 109 114 79 76
160 128 282 276 260 234 239 337 10 39 77 129 195 185 330 224 225 193 209 203 208 210 235 218 213 162 171 172 169 179 192 190 187 212 203 201 200 198 205 219 219 242 240 326 333 144 156 137 173
197 192 229 263 282 356 289 305 336 141 356 1 323 320 278 254 225 211 242 192 179 189 215 224 222 179 176 175 178 183 187 194 196 197 196 201 206 207 207 215 229 249 261 281 306 253 157 296 224
266 207 226 239 289 294 297 305 300 213 93 32 23 323 257 237 242 260 199 231 208 221 212 213 216 196 199 175 181 189 187 195 200 202 199 199 205 219 216 221 225 242 247 266 267 276 274 257 240
347 219 229 246 251 284 281 301 286 289 290 330 43 1 291 256 261 203 240 254 215 256 236 212 216 205 211 194 178 190 192 195 203 194 198 193 199 212 211 214 221 235 244 244 246 247 239 265 246
260 226 238 244 246 244 263 280 290 253 296 307 358 350 359 344 156 204 244 235 247 254 247 195 210 214 222 222 192 184 197 195 204 197 201 194 195 203 203 210 216 226 235 233 240 227 240 242 248
250 208 234 235 240 269 297 284 273 268 299 298 331 332 321 350 314 302 243 241 249 244 231 202 217 227 233 227 214 205 200 194 193 198 201 201 199 197 204 202 224 214 220 217 223 231 235 243 245
246 247 245 233 235 249 274 283 276 264 281 275 330 320 314 334 343 308 298 279 284 273 255 245 245 247 236 226 220 217 216 215 204 200 199 207 210 201 195 200 214 211 213 214 209 221 236 249 243